This is the latest recevied weather packets stored in our database for station/object HB9HFD-13. If no packets are shown the sender has not sent any weather packets the latest 10 day(s).
| Time | Temp. | Humidity | Pressure | Rain* | Wind** | Luminosity | Snow |
|---|---|---|---|---|---|---|---|
| 1778074270 | 10.56° C | 84% | 1008.5 hPa | 0 mm | - | - | - |
| 1778073970 | 10.56° C | 84% | 1008.5 hPa | 0 mm | - | - | - |
| 1778073670 | 10.56° C | 84% | 1008.7 hPa | 0 mm | - | - | - |
| 1778073369 | 10.56° C | 86% | 1008.5 hPa | 0 mm | - | - | - |
| 1778073069 | 10.56° C | 86% | 1008.5 hPa | 0 mm | - | - | - |
| 1778072769 | 10.56° C | 85% | 1008.5 hPa | 0.25 mm | - | - | - |
| 1778072468 | 10.56° C | 87% | 1008.4 hPa | 0.25 mm | - | - | - |
| 1778072168 | 10.56° C | 86% | 1008.4 hPa | 0.25 mm | - | - | - |
| 1778071868 | 10.56° C | 89% | 1008.4 hPa | 0.51 mm | - | - | - |
| 1778071568 | 10° C | 90% | 1008.4 hPa | 0.51 mm | - | - | - |
| 1778071267 | 10° C | 88% | 1008.3 hPa | 0.51 mm | - | - | - |
| 1778070967 | 10° C | 89% | 1008.4 hPa | 0.51 mm | - | - | - |
| 1778070667 | 10° C | 89% | 1008.3 hPa | 0.51 mm | - | - | - |
| 1778070366 | 10° C | 90% | 1008.2 hPa | 0.51 mm | - | - | - |
| 1778070066 | 10.56° C | 91% | 1008.1 hPa | 0.51 mm | - | - | - |
| 1778069766 | 10° C | 89% | 1008.1 hPa | 0.51 mm | - | - | - |
| 1778069466 | 10° C | 90% | 1008 hPa | 0.51 mm | - | - | - |
| 1778069165 | 10° C | 87% | 1008 hPa | 0.25 mm | - | - | - |
| 1778068865 | 10° C | 87% | 1007.9 hPa | 0.25 mm | - | - | - |
| 1778068565 | 10.56° C | 85% | 1007.9 hPa | 0.25 mm | - | - | - |
| 1778068265 | 10.56° C | 90% | 1007.9 hPa | 0 mm | - | - | - |
| 1778067964 | 11.11° C | 91% | 1007.8 hPa | 0 mm | - | - | - |
| 1778067664 | 10.56° C | 91% | 1007.7 hPa | 0 mm | - | - | - |
| 1778067364 | 11.11° C | 92% | 1007.8 hPa | 0 mm | - | - | - |
| 1778067064 | 10.56° C | 92% | 1007.8 hPa | 0 mm | - | - | - |
* Rain latest hour (hover to see other rain measurements)
** Current wind speed in m/s (hover to see current wind gust speed)